Regional Weather Roundup
Issued by NWS Jackson, KY

Home | Current Version | Previous Version | Text Only | Print | Product List | Glossary On
Versions: 1 2 3 4 5 6 7 8 9 10 11 12 13 14 15 16 17 18 19 20 21 22 23 24 25 26 27 28 29 30 31 32 33 34 35 36 37 38 39 40 41 42 43 44 45 46 47 48 49
000
ASUS43 KJKL 032210
RWRJKL

EAST KENTUCKY HOURLY WEATHER ROUNDUP
NATIONAL WEATHER SERVICE JACKSON KY
600 PM EDT TUE MAY 03 2016

NOTE: "FAIR" INDICATES FEW OR NO CLOUDS BELOW 12,000 FEET WITH
NO SIGNIFICANT WEATHER AND/OR OBSTRUCTIONS TO VISIBILITY.

* THESE REPORTS ARE NOT UNDER NWS QUALITY CONTROL AND MAY NOT
  REPORT WEATHER SUCH AS PRECIPITATION AND FOG.

KYZ079-080-083-085-087-088-110-112-115-119-120-032300
...EASTERN KENTUCKY...

CITY           SKY/WX    TMP DP  RH WIND       PRES   REMARKS
JACKSON        CLOUDY    59  45  59 W7        29.88S
LONDON         CLOUDY    64  47  53 W10       29.89S
SOMERSET*      CLOUDY    61  45  55 W9        29.92S
MONTICELLO*    CLOUDY    62  49  62 NW10G20   29.92S
WILLIAMSBURG*  PTCLDY    59  45  58 NW8       29.89S
MIDDLESBORO*   PTSUNNY   65  49  56 NW12      29.88R
HARLAN APT*    MOCLDY    63  45  51 SW5G16    29.88R
HAZARD APT*    CLOUDY    63  50  63 NW7       29.88S
BLACK MTN*       N/A     52  46  82 VRB5        N/A
PIKE CO APT*   CLOUDY    61  48  62 W13       29.86R
BIG SANDY APT* MOCLDY    62  49  62 NW5G16    29.86S
MOREHEAD APT*  CLOUDY    59  48  67 W7        29.89S
$$

KYZ035-036-041-042-044-050-067-078-099-032300
...CENTRAL KENTUCKY...

CITY           SKY/WX    TMP DP  RH WIND       PRES   REMARKS
MT STERLING*   CLOUDY    61  48  63 W9        29.90S
FLEMING/MASON* CLOUDY    58  49  72 CALM      29.88S
DANVILLE*      CLOUDY    59  45  58 W7        29.91S
RICHMOND*      CLOUDY    59  46  63 W7        29.90S
LEXINGTON      CLOUDY    60  45  57 W8        29.89S
FRANKFORT      CLOUDY    62  47  57 NW10      29.88S
LOUISVILLE     CLOUDY    62  46  55 NW14G21   29.90S
LEBANON*       CLOUDY    61  46  59 SW7       29.90F
BOWLING GREEN  CLOUDY    63  44  50 NW9       29.92F
$$

KYZ091>093-OHZ055-061-077-WVZ005-015-034-035-042-032300
...SOUTHERN OHIO/WEST VIRGINIA...

CITY           SKY/WX    TMP DP  RH WIND       PRES   REMARKS
COVINGTON      CLOUDY    56  48  74 W8        29.88S
COLUMBUS       LGT RAIN  56  47  71 CALM      29.84S
DAYTON         CLOUDY    57  44  62 NW7       29.87S
WILMINGTON     CLOUDY    57  47  69 NW6       29.86F
HUNTINGTON     CLOUDY    61  51  70 NW5       29.85S
CHARLESTON     PTSUNNY   59  51  75 NW6       29.85R
PINEVILLE*     CLOUDY    64  47  55 MISG      29.88R
BECKLEY        CLOUDY    59  49  69 NW9       29.83S
$$

VAZ002-007-008-TNZ017-027-036-066-071-032300
...SOUTHWEST VIRGINIA/EAST TENNESSEE...

CITY           SKY/WX    TMP DP  RH WIND       PRES   REMARKS
WISE*          CLOUDY    59  43  55 NW10      29.89R
BRISTOL        PTSUNNY   67  49  52 NW10      29.83S
MORRISTOWN*    MOCLDY    66  50  55 NW10G17   29.84S
SEVIERVILLE*   PTCLDY    66  52  59 NW10      29.84R
KNOXVILLE      MOSUNNY   70  51  51 W13       29.85R
OAK RIDGE      MOSUNNY   71  45  39 VRB6      29.87S
CROSSVILLE     CLOUDY    64  46  52 NW8       29.91S
NASHVILLE      PTSUNNY   64  46  52 NW8       29.93S
$$

...KEY TO REMARKS...
VSB - VISIBILITY IN MILES
WCI - WIND CHILL INDEX
HX  - HEAT INDEX

$$



USA.gov is the U.S. government's official web portal to all federal, state and local government web resources and services.